WILDTRACKCUBE-SIMBA

Last updated on Thu Nov 21 2024 00:03:40 GMT+0000 (Coordinated Universal Time)

1 47941U 21022K 24325.51839695 .00032399 00000+0 10965-2 0 9992 2 47941 97.4405 221.5554 0011398 326.1312 33.9200 15.30475960202292
UTC large
Height (km)
Speed (km/s)
/
Latitude / Longitude
Inclination (degrees)
Orbital Period (minutes)
Azimuth
Elevation
Range (km)
Doppler Factor

Next 0 passes for location: London (51.5072 / 0.1276)

Sorry there are no passes over London.